Location: Marsån
(66.4167°N, 22.2833°E)
Time: 07:19:32
(UTC+00:00)

Cosmos 1655 Rocket - Pass Details

Date: 24 February 2024
Orbit: 970 x 1006 km, 82.9° (Epoch: 20 April)

Event Time Altitude Azimuth Distance (km) Brightness Sun altitude
Rises 18:05:07 0° 336° (NNW) 3,721 7.6 -16.7°
Reaches altitude 10° 18:07:46 10° 342° (NNW) 2,764 6.8 -16.9°
Maximum altitude 18:13:54 49° 57° (ENE) 1,251 4.3 -17.5°
Enters shadow 18:16:57 28° 117° (ESE) 1,749 4.7 -17.8°
